DW0282 Mechanicsville MD US current weather conditions

sailwx.info

Wind from 024

Air temperature 9.4° C
Dewpoint 9.0° C

Last reported at 2020-Jan-25 13:08 UTC.
Time now 2020-Jan-25 14:09 UTC

Location: N 38°24' W 076°40'.
View on Google Maps.

See reports from other nearby stations

  
Tides and Currents Weather Stations Pressure Air Temp Water Temp Dewpoint Dewpoint Depression Visibility Wind Speed Wind Dir Waves Ship Positions
date/time (UTC)wind fromknots sea level pressurealtimeterstation pressurevisibilityair tempwater tempwave heightnotes
2020-Jan-25 13:08 024 9.4
2020-Jan-25 13:03 048 9.4
2020-Jan-25 12:58 045 1 gusting 4 9.4
2020-Jan-25 12:53 015 9.4
2020-Jan-25 12:48 015 0 gusting 5 9.4
2020-Jan-25 12:43 036 2 gusting 5 9.4
2020-Jan-25 12:38 024 1 gusting 3 10.0
2020-Jan-25 12:33 360 10.0
2020-Jan-25 12:28 013 10.0
2020-Jan-25 12:23 355 1 gusting 4 10.0
2020-Jan-25 12:18 355 2 gusting 5 10.0
2020-Jan-25 12:13 360 2 gusting 4 10.0
2020-Jan-25 12:08 005 0 gusting 4 10.0
2020-Jan-25 12:03 360 0 gusting 3 10.0
2020-Jan-25 11:58 355 1 gusting 4 10.0
2020-Jan-25 11:53 348 2 gusting 4 10.0
2020-Jan-25 11:48 344 0 gusting 4 10.6
2020-Jan-25 11:43 324 1 gusting 4 10.6
2020-Jan-25 11:38 272 10.6
2020-Jan-25 11:33 333 10.6
2020-Jan-25 11:28 329 10.6
2020-Jan-25 11:23 355 0 gusting 6 10.6
2020-Jan-25 11:18 350 3 gusting 6 10.6
2020-Jan-25 11:13 342 4 gusting 10 11.1
2020-Jan-25 11:08 360 6 gusting 12 11.1
2020-Jan-25 11:03 338 6 gusting 11 11.1
2020-Jan-25 10:58 288 1 gusting 8 11.7
2020-Jan-25 10:53 221 11.7
2020-Jan-25 10:48 220 11.7
2020-Jan-25 10:43 220 11.7
2020-Jan-25 10:38 220 0 gusting 2 11.7
2020-Jan-25 10:33 221 11.7
2020-Jan-25 10:28 186 11.7
2020-Jan-25 10:23 233 11.7
2020-Jan-25 10:18 182 2 gusting 7 11.7
2020-Jan-25 10:13 221 1 gusting 6 11.7
2020-Jan-25 10:08 121 0 gusting 5 11.1
2020-Jan-25 10:03 130 0 gusting 6 11.1
2020-Jan-25 09:58 123 1 gusting 7 11.1
2020-Jan-25 09:53 133 3 gusting 6 11.1
2020-Jan-25 09:48 076 3 gusting 6 10.6
2020-Jan-25 09:43 085 3 gusting 6 10.6
2020-Jan-25 09:38 166 2 gusting 8 10.6
2020-Jan-25 09:33 130 5 gusting 8 10.6
2020-Jan-25 09:28 103 4 gusting 7 10.6
2020-Jan-25 09:23 108 3 gusting 8 10.6
2020-Jan-25 09:18 171 3 gusting 9 10.6
2020-Jan-25 09:13 091 5 gusting 9 10.6
2020-Jan-25 09:08 137 4 gusting 11 10.6
2020-Jan-25 09:03 117 5 gusting 10 10.6
2020-Jan-25 08:58 092 3 gusting 10 10.6
2020-Jan-25 08:53 117 4 gusting 10 10.6
2020-Jan-25 08:48 112 3 gusting 8 10.6
2020-Jan-25 08:43 092 4 gusting 7 10.6
2020-Jan-25 08:38 110 1 gusting 9 10.6
2020-Jan-25 08:33 142 4 gusting 13 10.6
2020-Jan-25 08:28 088 7 gusting 13 10.6
2020-Jan-25 08:23 085 4 gusting 9 10.6
2020-Jan-25 08:18 103 4 gusting 9 10.6
2020-Jan-25 08:13 143 1 gusting 9 10.6
2020-Jan-25 08:08 181 3 gusting 9 10.6
2020-Jan-25 08:03 165 4 gusting 9 10.6
2020-Jan-25 07:58 121 2 gusting 8 10.6
2020-Jan-25 07:53 136 3 gusting 8 10.6
2020-Jan-25 07:48 117 2 gusting 10 10.6
2020-Jan-25 07:43 151 4 gusting 8 10.6
2020-Jan-25 07:38 092 3 gusting 11 10.6
2020-Jan-25 07:33 078 4 gusting 13 10.6
2020-Jan-25 07:28 104 6 gusting 13 10.6
2020-Jan-25 07:23 132 3 gusting 11 10.0
2020-Jan-25 07:18 109 5 gusting 12 10.0
2020-Jan-25 07:13 103 5 gusting 13 10.0
2020-Jan-25 07:08 113 6 gusting 13 10.0
2020-Jan-25 07:03 131 6 gusting 10 10.0
2020-Jan-25 06:58 119 5 gusting 12 10.0
2020-Jan-25 06:53 101 5 gusting 12 10.0
2020-Jan-25 06:48 082 5 gusting 9 10.0
2020-Jan-25 06:43 129 5 gusting 13 10.0
2020-Jan-25 06:38 087 6 gusting 13 10.0
2020-Jan-25 06:33 128 4 gusting 11 10.0
2020-Jan-25 06:28 078 3 gusting 11 10.0
2020-Jan-25 06:23 123 6 gusting 10 10.0
2020-Jan-25 06:18 094 5 gusting 10 10.0
2020-Jan-25 06:13 119 4 gusting 9 10.0
2020-Jan-25 06:08 134 3 gusting 13 10.0
2020-Jan-25 06:03 098 3 gusting 9 10.0
2020-Jan-25 05:58 092 3 gusting 11 10.0
2020-Jan-25 05:53 110 6 gusting 13 10.0
2020-Jan-25 05:48 107 6 gusting 13 10.0
2020-Jan-25 05:43 112 3 gusting 8 10.0
2020-Jan-25 05:38 126 2 gusting 7 10.0
2020-Jan-25 05:33 095 2 gusting 8 10.0
2020-Jan-25 05:28 075 5 gusting 10 10.0
2020-Jan-25 05:23 107 5 gusting 10 10.0
2020-Jan-25 05:18 092 4 gusting 10 10.0
2020-Jan-25 05:13 090 6 gusting 10 10.0
2020-Jan-25 05:08 087 5 gusting 9 10.0
2020-Jan-25 05:03 102 3 gusting 12 10.0
2020-Jan-25 04:58 108 6 gusting 12 10.0
2020-Jan-25 04:53 111 4 gusting 12 10.0
2020-Jan-25 04:48 084 5 gusting 12 10.0
2020-Jan-25 04:43 113 6 gusting 13 9.4
2020-Jan-25 04:38 096 2 gusting 13 9.4
2020-Jan-25 04:33 096 5 gusting 12 9.4
2020-Jan-25 04:28 072 6 gusting 12 9.4
2020-Jan-25 04:23 101 3 gusting 9 9.4
2020-Jan-25 04:18 115 4 gusting 11 9.4
2020-Jan-25 04:13 122 2 gusting 11 9.4
2020-Jan-25 04:08 105 6 gusting 11 9.4
2020-Jan-25 04:03 119 1 gusting 8 9.4
2020-Jan-25 03:58 097 5 gusting 9 9.4
2020-Jan-25 03:53 125 4 gusting 9 9.4
2020-Jan-25 03:48 117 4 gusting 9 9.4
2020-Jan-25 03:43 113 5 gusting 10 9.4
2020-Jan-25 03:38 110 4 gusting 10 9.4
2020-Jan-25 03:33 148 2 gusting 9 9.4
2020-Jan-25 03:28 103 4 gusting 9 9.4
2020-Jan-25 03:23 113 5 gusting 9 9.4
2020-Jan-25 03:18 098 3 gusting 9 9.4
2020-Jan-25 03:13 099 2 gusting 12 9.4
2020-Jan-25 03:08 107 6 gusting 10 9.4
2020-Jan-25 03:03 088 4 gusting 9 9.4
2020-Jan-25 02:58 080 3 gusting 9 9.4
2020-Jan-25 02:53 107 6 gusting 11 9.4
2020-Jan-25 02:48 119 4 gusting 11 9.4
2020-Jan-25 02:43 116 3 gusting 10 9.4
2020-Jan-25 02:38 088 3 gusting 8 9.4
2020-Jan-25 02:33 078 4 gusting 9 9.4
2020-Jan-25 02:28 126 5 gusting 9 9.4
2020-Jan-25 02:23 077 2 gusting 9 9.4
2020-Jan-25 02:18 105 3 gusting 7 9.4
2020-Jan-25 02:13 096 4 gusting 10 9.4
2020-Jan-25 02:08 092 4 gusting 10 9.4
2020-Jan-25 02:03 093 4 gusting 10 9.4
2020-Jan-25 01:58 096 6 gusting 10 9.4
2020-Jan-25 01:53 099 5 gusting 11 9.4
2020-Jan-25 01:48 102 5 gusting 11 9.4
2020-Jan-25 01:43 087 6 gusting 11 9.4
2020-Jan-25 01:38 128 6 gusting 11 9.4
2020-Jan-25 01:33 088 5 gusting 8 10.0
2020-Jan-25 01:28 116 3 gusting 8 10.0
2020-Jan-25 01:23 106 3 gusting 11 10.0
2020-Jan-25 01:18 098 6 gusting 11 10.0
2020-Jan-25 01:13 090 3 gusting 10 10.0
2020-Jan-25 01:08 078 4 gusting 10 10.0
2020-Jan-25 01:03 092 3 gusting 9 10.0
2020-Jan-25 00:58 118 5 gusting 9 10.0
2020-Jan-25 00:53 115 5 gusting 10 10.0
2020-Jan-25 00:48 111 2 gusting 10 10.0
2020-Jan-25 00:43 123 3 gusting 8 10.0
2020-Jan-25 00:38 089 4 gusting 8 10.0
2020-Jan-25 00:33 081 2 gusting 8 10.0
2020-Jan-25 00:28 103 4 gusting 8 10.6
2020-Jan-25 00:23 070 3 gusting 7 10.6
2020-Jan-25 00:18 101 4 gusting 7 10.6
2020-Jan-25 00:13 103 2 gusting 6 10.6
2020-Jan-25 00:08 111 3 gusting 8 10.6
2020-Jan-25 00:03 116 4 gusting 8 10.6
2020-Jan-24 23:58 076 3 gusting 7 10.6
2020-Jan-24 23:53 099 4 gusting 7 10.6
2020-Jan-24 23:48 105 4 gusting 6 10.6
2020-Jan-24 23:43 121 2 gusting 7 10.6
2020-Jan-24 23:38 109 3 gusting 7 10.6
2020-Jan-24 23:33 091 2 gusting 8 10.6
2020-Jan-24 23:28 101 1 gusting 8 10.6
2020-Jan-24 23:23 105 2 gusting 7 10.6
2020-Jan-24 23:18 071 4 gusting 8 10.6
2020-Jan-24 23:13 086 2 gusting 8 10.6
2020-Jan-24 23:08 080 3 gusting 6 10.6
2020-Jan-24 23:03 096 3 gusting 6 10.0
2020-Jan-24 22:58 085 0 gusting 4 10.0
2020-Jan-24 22:53 069 1 gusting 4 10.0
2020-Jan-24 22:48 084 1 gusting 3 10.6
2020-Jan-24 22:43 087 1 gusting 3 10.6
2020-Jan-24 22:38 086 0 gusting 3 10.6
2020-Jan-24 22:33 071 10.6
2020-Jan-24 22:28 063 0 gusting 3 10.6
2020-Jan-24 22:23 074 10.6
2020-Jan-24 22:18 084 1 gusting 3 10.6
2020-Jan-24 22:13 075 2 gusting 3 10.6
2020-Jan-24 22:08 071 1 gusting 3 11.1
2020-Jan-24 22:03 100 1 gusting 3 11.1
2020-Jan-24 21:58 078 0 gusting 3 11.1
2020-Jan-24 21:53 107 11.1
2020-Jan-24 21:48 086 1 gusting 3 11.1
2020-Jan-24 21:43 082 2 gusting 4 11.1
2020-Jan-24 21:38 071 1 gusting 3 11.1
2020-Jan-24 21:33 080 0 gusting 2 11.1
2020-Jan-24 21:28 088 0 gusting 3 11.7
2020-Jan-24 21:23 092 0 gusting 3 11.7
2020-Jan-24 21:18 063 11.7
2020-Jan-24 21:13 064 0 gusting 6 11.7
2020-Jan-24 21:08 080 3 gusting 6 11.7
2020-Jan-24 21:03 061 1 gusting 5 12.2
2020-Jan-24 20:58 065 2 gusting 6 12.2
2020-Jan-24 20:53 089 2 gusting 6 12.2
2020-Jan-24 20:48 086 3 gusting 8 12.2
2020-Jan-24 20:43 085 4 gusting 8 12.2
2020-Jan-24 20:38 075 3 gusting 7 12.2
2020-Jan-24 20:33 066 2 gusting 7 12.2
2020-Jan-24 20:28 085 3 gusting 6 12.2
2020-Jan-24 20:23 080 2 gusting 7 12.2
2020-Jan-24 20:18 090 3 gusting 7 12.2
2020-Jan-24 20:13 104 3 gusting 7 12.8
2020-Jan-24 20:08 088 1 gusting 5 12.8
2020-Jan-24 20:03 144 1 gusting 5 12.8
2020-Jan-24 19:58 090 2 gusting 4 12.8
2020-Jan-24 19:53 100 0 gusting 3 12.8
2020-Jan-24 19:48 090 12.8
2020-Jan-24 19:43 075 1 gusting 4 12.8
2020-Jan-24 19:38 120 12.8
2020-Jan-24 19:33 061 12.8
2020-Jan-24 19:28 070 0 gusting 4 12.8
2020-Jan-24 19:23 090 12.8
2020-Jan-24 19:18 093 0 gusting 5 12.8
2020-Jan-24 19:13 101 12.8
2020-Jan-24 19:08 078 2 gusting 6 12.8
2020-Jan-24 19:03 082 13.3
2020-Jan-24 18:58 109 12.8
2020-Jan-24 18:53 080 1 gusting 6 12.8
2020-Jan-24 18:48 119 2 gusting 6 12.8
2020-Jan-24 18:43 055 2 gusting 6 12.8
2020-Jan-24 18:38 113 1 gusting 6 12.2
2020-Jan-24 18:33 065 4 gusting 6 12.2
2020-Jan-24 18:28 076 3 gusting 7 12.2
2020-Jan-24 18:23 123 3 gusting 7 12.2
2020-Jan-24 18:18 083 1 gusting 6 12.2
2020-Jan-24 18:13 094 3 gusting 7 12.2
2020-Jan-24 18:08 101 4 gusting 7 12.2
2020-Jan-24 18:03 095 5 gusting 6 12.2
2020-Jan-24 17:58 079 2 gusting 6 12.2
2020-Jan-24 17:53 098 2 gusting 7 11.7
2020-Jan-24 17:48 040 1 gusting 7 12.2
2020-Jan-24 17:43 121 1 gusting 7 12.2
2020-Jan-24 17:38 110 2 gusting 7 12.2
2020-Jan-24 17:33 104 3 gusting 7 12.2
2020-Jan-24 17:28 115 1 gusting 7 12.2
2020-Jan-24 17:23 095 1 gusting 6 12.2
2020-Jan-24 17:18 081 1 gusting 6 12.2
2020-Jan-24 17:13 097 2 gusting 7 12.2
2020-Jan-24 17:08 104 3 gusting 7 12.2
2020-Jan-24 17:03 069 1 gusting 7 11.7
2020-Jan-24 16:58 090 3 gusting 7 11.1
2020-Jan-24 16:53 101 3 gusting 8 11.1
2020-Jan-24 16:48 089 0 gusting 6 11.1
2020-Jan-24 16:43 076 1 gusting 8 10.6
2020-Jan-24 16:38 092 2 gusting 8 10.6
2020-Jan-24 16:33 082 3 gusting 9 10.0
2020-Jan-24 16:28 049 5 gusting 9 10.0
2020-Jan-24 16:23 078 2 gusting 6 10.0
2020-Jan-24 16:18 081 0 gusting 6 9.4
2020-Jan-24 16:13 103 2 gusting 6 9.4
2020-Jan-24 16:08 117 2 gusting 7 8.9
2020-Jan-24 16:03 092 3 gusting 7 8.3
2020-Jan-24 15:58 113 3 gusting 8 7.8
2020-Jan-24 15:53 081 1 gusting 6 7.2
2020-Jan-24 15:48 079 0 gusting 6 7.2
2020-Jan-24 15:43 111 2 gusting 5 6.7
2020-Jan-24 15:38 090 0 gusting 6 6.7
2020-Jan-24 15:33 094 3 gusting 8 6.1
2020-Jan-24 15:28 083 3 gusting 8 6.1
2020-Jan-24 15:23 086 2 gusting 6 5.6
2020-Jan-24 15:18 094 3 gusting 6 5.6
2020-Jan-24 15:13 090 2 gusting 5 5.6
2020-Jan-24 15:08 084 1 gusting 7 5.0
2020-Jan-24 15:03 080 4 gusting 8 5.0
2020-Jan-24 14:58 090 5 gusting 8 5.0
2020-Jan-24 14:53 077 4 gusting 6 5.0
2020-Jan-24 14:48 086 2 gusting 5 4.4
2020-Jan-24 14:43 068 1 gusting 4 4.4
2020-Jan-24 14:38 084 0 gusting 4 4.4
2020-Jan-24 14:33 074 0 gusting 5 4.4
2020-Jan-24 14:28 049 2 gusting 5 3.9
2020-Jan-24 14:23 077 1 gusting 4 3.9
2020-Jan-24 14:18 042 0 gusting 3 3.9
2020-Jan-24 14:13 038 3.3
2020-Jan-24 14:08 038 3.3
2020-Jan-24 14:03 074 0 gusting 2 3.3
2020-Jan-24 13:58 082 3.3
2020-Jan-24 13:53 074 0 gusting 2 3.3
2020-Jan-24 13:48 065 0 gusting 2 2.8
2020-Jan-24 13:43 094 2.8
2020-Jan-24 13:38 055 2.8
2020-Jan-24 13:33 013 2.2
2020-Jan-24 13:28 010 2.2
2020-Jan-24 13:23 005 2.2
2020-Jan-24 13:18 005 0 gusting 2 2.2
2020-Jan-24 13:13 005 2.2
2020-Jan-24 13:08 005 1.7
2020-Jan-24 13:03 005 1.7
2020-Jan-24 12:58 009 1.7
2020-Jan-24 12:53 005 1.7
2020-Jan-24 12:48 011 1 gusting 3 1.1
2020-Jan-24 12:43 355 1 gusting 2 1.1
2020-Jan-24 12:38 360 0 gusting 3 1.1
2020-Jan-24 12:33 355 0 gusting 3 1.1
2020-Jan-24 12:28 351 0 gusting 3 1.1
2020-Jan-24 12:23 342 1 gusting 4 1.1
2020-Jan-24 12:18 337 1 gusting 4 0.6
2020-Jan-24 12:13 355 1 gusting 3 0.6
2020-Jan-24 12:08 355 1 gusting 2 0.6
2020-Jan-24 12:03 005 0 gusting 1 0.6
2020-Jan-24 11:58 019 0.6
2020-Jan-24 11:53 018 0.6
2020-Jan-24 11:48 018 0.6
2020-Jan-24 11:43 355 1 gusting 3 0.6
2020-Jan-24 11:38 360 2 gusting 3 0.6
2020-Jan-24 11:33 355 2 gusting 2 -0.0
2020-Jan-24 11:28 355 0 gusting 2 -0.0
2020-Jan-24 11:23 355 -0.0
2020-Jan-24 11:18 355 -0.0
2020-Jan-24 11:13 355 -0.0
2020-Jan-24 11:08 355 -0.6
2020-Jan-24 11:03 355 -0.6
2020-Jan-24 10:58 355 -0.0
2020-Jan-24 10:53 355 -0.0
2020-Jan-24 10:48 355 -0.0
2020-Jan-24 10:43 355 0 gusting 1 -0.0
2020-Jan-24 10:38 355 0 gusting 1 -0.0
2020-Jan-24 10:33 355 -0.0
2020-Jan-24 10:28 355 -0.0
2020-Jan-24 10:23 355 -0.0
2020-Jan-24 10:18 360 0 gusting 2 -0.0
2020-Jan-24 10:13 360 0 gusting 2 -0.6
2020-Jan-24 10:08 360 1 gusting 3 -0.6
2020-Jan-24 10:03 360 0 gusting 3 -0.6
2020-Jan-24 09:58 014 1 gusting 3 -0.6
2020-Jan-24 09:53 013 2 gusting 3 -0.6
2020-Jan-24 09:48 014 1 gusting 2 -1.1
2020-Jan-24 09:43 015 1 gusting 2 -1.1
2020-Jan-24 09:38 015 1 gusting 2 -1.1
2020-Jan-24 09:33 015 1 gusting 2 -1.1
2020-Jan-24 09:28 015 -1.1
2020-Jan-24 09:23 015 1 gusting 2 -1.1
2020-Jan-24 09:18 015 0 gusting 1 -0.6
2020-Jan-24 09:13 015 -0.6
2020-Jan-24 09:08 015 -0.6
2020-Jan-24 09:03 015 0 gusting 1 -1.1
2020-Jan-24 08:58 015 -1.1
2020-Jan-24 08:53 015 -1.1
2020-Jan-24 08:48 015 1 gusting 3 -1.1
2020-Jan-24 08:43 015 0 gusting 3 -1.1
2020-Jan-24 08:38 360 1 gusting 2 -1.1
2020-Jan-24 08:33 005 -1.1
2020-Jan-24 08:28 005 0 gusting 2 -1.1
2020-Jan-24 08:23 005 1 gusting 2 -1.1
2020-Jan-24 08:18 005 -1.1
2020-Jan-24 08:13 005 -1.1
2020-Jan-24 08:08 005 -1.1
2020-Jan-24 08:03 005 1 gusting 2 -1.1
2020-Jan-24 07:58 005 0 gusting 2 -1.1
2020-Jan-24 07:53 005 1 gusting 2 -1.1
2020-Jan-24 07:48 005 1 gusting 2 -1.1
2020-Jan-24 07:43 005 1 gusting 2 -1.7
2020-Jan-24 07:38 005 1 gusting 2 -1.7
2020-Jan-24 07:33 016 -1.7
2020-Jan-24 07:28 016 -1.7
2020-Jan-24 07:23 016 -1.7
2020-Jan-24 07:18 016 -1.7
2020-Jan-24 07:13 016 -1.7
2020-Jan-24 07:08 016 -1.7
2020-Jan-24 07:03 016 -1.7
2020-Jan-24 06:58 016 -1.7
2020-Jan-24 06:53 016 -1.7
2020-Jan-24 06:48 016 -1.7
2020-Jan-24 06:43 016 -1.7
2020-Jan-24 06:38 016 0 gusting 2 -1.7
2020-Jan-24 06:33 019 -1.7
2020-Jan-24 06:28 019 -1.7
2020-Jan-24 06:23 019 0 gusting 2 -1.7
2020-Jan-24 06:18 029 1 gusting 3 -1.1
2020-Jan-24 06:13 034 2 gusting 2 -1.1
2020-Jan-24 06:08 046 0 gusting 1 -1.1
2020-Jan-24 06:03 056 0 gusting 1 -1.1
2020-Jan-24 05:58 057 -1.1
2020-Jan-24 05:53 057 -1.1
2020-Jan-24 05:48 057 0 gusting 1 -1.1
2020-Jan-24 05:43 057 0 gusting 1 -1.7
2020-Jan-24 05:38 057 -1.7
2020-Jan-24 05:33 059 -1.7
2020-Jan-24 05:28 059 -1.7
2020-Jan-24 05:23 059 -1.7
2020-Jan-24 05:18 059 -1.7
2020-Jan-24 05:13 059 -1.7
2020-Jan-24 05:08 059 -1.7
2020-Jan-24 05:03 059 -1.7
2020-Jan-24 04:58 059 -1.7
2020-Jan-24 04:53 059 -1.7
2020-Jan-24 04:48 059 -1.7
2020-Jan-24 04:43 059 -1.7
2020-Jan-24 04:38 059 -1.1
2020-Jan-24 04:33 059 -1.1
2020-Jan-24 04:28 059 -1.1
2020-Jan-24 04:23 059 -1.1
2020-Jan-24 04:18 060 -1.1
2020-Jan-24 04:13 060 -0.6
2020-Jan-24 04:08 060 -0.6
2020-Jan-24 04:03 060 -0.6
2020-Jan-24 03:58 060 -0.6
2020-Jan-24 03:53 060 -0.6
2020-Jan-24 03:48 060 0 gusting 2 -0.6
2020-Jan-24 03:43 060 0 gusting 2 -0.6
2020-Jan-24 03:38 060 1 gusting 2 -0.6
2020-Jan-24 03:33 060 -0.0
2020-Jan-24 03:28 060 -0.0
2020-Jan-24 03:23 060 -0.0
2020-Jan-24 03:18 060 -0.0
2020-Jan-24 03:13 060 -0.0
2020-Jan-24 03:08 060 -0.0
2020-Jan-24 03:03 060 0 gusting 1 -0.0
2020-Jan-24 02:58 060 -0.0
2020-Jan-24 02:53 060 -0.0
2020-Jan-24 02:48 060 -0.0
2020-Jan-24 02:43 060 -0.0
2020-Jan-24 02:38 060 -0.0
2020-Jan-24 02:33 060 0.6
2020-Jan-24 02:28 060 0.6
2020-Jan-24 02:23 060 0.6
2020-Jan-24 02:18 060 0.6
2020-Jan-24 02:13 060 0.6
2020-Jan-24 02:08 060 0.6
2020-Jan-24 02:03 060 0.6
2020-Jan-24 01:58 060 1.1
2020-Jan-24 01:53 060 1.1
2020-Jan-24 01:48 060 1.1
2020-Jan-24 01:43 060 1.1
2020-Jan-24 01:38 060 1.1
2020-Jan-24 01:33 060 1.1
2020-Jan-24 01:28 060 1.1
2020-Jan-24 01:23 060 1.7
2020-Jan-24 01:18 060 1.7
2020-Jan-24 01:13 060 1.7
2020-Jan-24 01:08 060 1.7
2020-Jan-24 01:03 060 1.7
2020-Jan-24 00:58 060 1.7
2020-Jan-24 00:53 060 1.7
2020-Jan-24 00:48 060 2.2
2020-Jan-24 00:43 060 2.2
2020-Jan-24 00:38 060 2.2
2020-Jan-24 00:33 060 2.2
2020-Jan-24 00:28 060 2.2
2020-Jan-24 00:23 060 2.2
2020-Jan-24 00:18 060 2.8
2020-Jan-24 00:13 060 2.8
2020-Jan-24 00:08 060 2.8
2020-Jan-24 00:03 060 2.8
2020-Jan-23 23:58 060 2.8
2020-Jan-23 23:53 060 2.8
2020-Jan-23 23:48 060 2.8
2020-Jan-23 23:43 060 2.8
2020-Jan-23 23:38 060 2.8
2020-Jan-23 23:33 060 3.3
2020-Jan-23 23:28 060 3.3
2020-Jan-23 23:23 060 3.3
2020-Jan-23 23:18 060 3.3
2020-Jan-23 23:13 060 3.9
2020-Jan-23 23:08 060 3.9
2020-Jan-23 23:03 060 3.9
2020-Jan-23 22:58 060 3.9
2020-Jan-23 22:53 060 3.9
2020-Jan-23 22:48 060 3.9
2020-Jan-23 22:43 060 4.4
2020-Jan-23 22:38 060 4.4
2020-Jan-23 22:33 061 4.4
2020-Jan-23 22:28 061 4.4
2020-Jan-23 22:23 061 0 gusting 2 4.4
2020-Jan-23 22:18 072 4.4
2020-Jan-23 22:13 077 4.4
2020-Jan-23 22:08 077 1 gusting 2 4.4
2020-Jan-23 22:03 064 5.0
2020-Jan-23 21:58 064 5.0
2020-Jan-23 21:53 064 5.0
2020-Jan-23 21:48 064 5.0
2020-Jan-23 21:43 104 1 gusting 5 5.0
2020-Jan-23 21:38 063 0 gusting 3 5.0
2020-Jan-23 21:33 065 1 gusting 3 5.0
2020-Jan-23 21:28 063 0 gusting 2 5.6
2020-Jan-23 21:23 063 1 gusting 2 5.6
2020-Jan-23 21:18 059 0 gusting 3 5.6
2020-Jan-23 21:13 061 1 gusting 3 5.6
2020-Jan-23 21:08 051 0 gusting 3 5.6
2020-Jan-23 21:03 048 1 gusting 3 5.6
2020-Jan-23 20:58 053 1 gusting 4 6.1
2020-Jan-23 20:53 049 1 gusting 4 6.1
2020-Jan-23 20:48 055 2 gusting 3 6.7
2020-Jan-23 20:43 360 7.2
2020-Jan-23 20:38 069 7.2
2020-Jan-23 20:33 069 7.2
2020-Jan-23 20:28 069 7.2
2020-Jan-23 20:23 042 7.2
2020-Jan-23 20:18 040 7.2
2020-Jan-23 20:13 040 7.2
2020-Jan-23 20:08 026 7.2
2020-Jan-23 20:03 026 6.7
2020-Jan-23 19:58 029 6.7
2020-Jan-23 19:53 029 6.7
2020-Jan-23 19:48 046 6.7
2020-Jan-23 19:43 115 6.7
2020-Jan-23 19:38 162 6.7
2020-Jan-23 19:33 162 6.1
2020-Jan-23 19:28 063 5.6
2020-Jan-23 19:23 005 5.6
2020-Jan-23 19:18 010 5.6
2020-Jan-23 19:13 010 5.6
2020-Jan-23 19:08 360 5.6
2020-Jan-23 19:03 360 5.0
2020-Jan-23 18:58 360 5.0
2020-Jan-23 18:53 009 1 gusting 3 5.0
2020-Jan-23 18:48 036 5.0
2020-Jan-23 18:43 043 5.0
2020-Jan-23 18:38 060 0 gusting 3 5.0
2020-Jan-23 18:33 046 0 gusting 3 5.0
2020-Jan-23 18:28 059 1 gusting 4 5.0
2020-Jan-23 18:23 082 1 gusting 4 5.0
2020-Jan-23 18:18 089 0 gusting 3 5.0
2020-Jan-23 18:13 094 1 gusting 3 5.0
2020-Jan-23 18:08 094 2 gusting 3 5.0
2020-Jan-23 18:03 099 1 gusting 3 5.0
2020-Jan-23 17:58 061 1 gusting 3 5.0
2020-Jan-23 17:53 063 0 gusting 3 5.0
2020-Jan-23 17:48 063 0 gusting 3 5.0
2020-Jan-23 17:43 059 1 gusting 3 5.0
2020-Jan-23 17:38 046 5.0
2020-Jan-23 17:33 049 5.0
2020-Jan-23 17:28 355 5.0
2020-Jan-23 17:23 065 1 gusting 4 5.0
2020-Jan-23 17:18 109 4.4
2020-Jan-23 17:13 013 4.4
2020-Jan-23 17:08 032 4.4
2020-Jan-23 17:03 024 4.4
2020-Jan-23 16:58 058 4.4
2020-Jan-23 16:53 010 4.4
2020-Jan-23 16:48 012 4.4
2020-Jan-23 16:43 013 3.9
2020-Jan-23 16:38 005 3.9
2020-Jan-23 16:28 044 0 gusting 4 3.9
2020-Jan-23 16:23 049 0 gusting 3 3.9
2020-Jan-23 16:18 052 0 gusting 4 3.9
2020-Jan-23 16:13 355 2 gusting 4 3.9
2020-Jan-23 16:08 005 3.9
2020-Jan-23 16:03 094 0 gusting 3 3.3
2020-Jan-23 15:58 030 3.3
2020-Jan-23 15:53 038 2.8
2020-Jan-23 15:48 351 0 gusting 4 2.8
2020-Jan-23 15:43 347 0 gusting 4 2.2
2020-Jan-23 15:38 360 0 gusting 2 2.2
2020-Jan-23 15:33 360 0 gusting 2 1.7
2020-Jan-23 15:28 360 1 gusting 2 1.7
2020-Jan-23 15:23 360 0 gusting 3 1.7
2020-Jan-23 15:18 355 0 gusting 3 1.1
2020-Jan-23 15:13 009 1 gusting 3 1.1
2020-Jan-23 15:08 005 1 gusting 3 1.1
2020-Jan-23 15:03 019 1.1
2020-Jan-23 14:58 019 1 gusting 2 0.6
2020-Jan-23 14:53 024 0.6
2020-Jan-23 14:48 022 2 gusting 3 0.6
2020-Jan-23 14:43 011 1 gusting 3 0.6
2020-Jan-23 14:38 032 0 gusting 2 -0.0
2020-Jan-23 14:33 032 -0.0
2020-Jan-23 14:28 033 0 gusting 2 -0.0
2020-Jan-23 14:23 032 0 gusting 2 -0.6
2020-Jan-23 14:18 033 -0.6
2020-Jan-23 14:13 033 -1.1
2020-Jan-23 14:08 033 -1.1
2020-Jan-23 14:03 033 -1.7